TimeCST,TemperatureF,Dew PointF,Humidity,Sea Level PressureIn,VisibilityMPH,Wind Direction,Wind SpeedMPH,Gust SpeedMPH,PrecipitationIn,Events,Conditions,WindDirDegrees,DateUTC
12:53 AM,39.0,32.0,76,29.86,10.0,East,4.6,-,N/A,,Clear,100,2012-12-19 06:53:00
1:53 AM,39.0,32.0,76,29.84,10.0,East,8.1,-,N/A,,Clear,90,2012-12-19 07:53:00
2:53 AM,37.9,32.0,79,29.84,10.0,ENE,5.8,-,N/A,,Clear,70,2012-12-19 08:53:00
3:53 AM,39.0,33.1,79,29.83,10.0,ENE,8.1,-,N/A,,Clear,70,2012-12-19 09:53:00
4:53 AM,39.9,33.1,77,29.80,10.0,East,9.2,-,N/A,,Clear,90,2012-12-19 10:53:00
5:53 AM,41.0,33.8,76,29.77,10.0,ESE,11.5,21.9,N/A,,Clear,110,2012-12-19 11:53:00
6:53 AM,42.1,34.0,73,29.78,10.0,East,8.1,-,N/A,,Clear,80,2012-12-19 12:53:00
7:53 AM,44.1,34.0,68,29.77,10.0,East,8.1,-,N/A,,Clear,100,2012-12-19 13:53:00
8:53 AM,46.0,36.0,68,29.75,10.0,ESE,9.2,-,N/A,,Clear,110,2012-12-19 14:53:00
9:53 AM,50.0,37.9,63,29.76,10.0,ESE,5.8,-,N/A,,Mostly Cloudy,120,2012-12-19 15:53:00
10:53 AM,52.0,41.0,66,29.74,10.0,ESE,8.1,-,N/A,,Overcast,120,2012-12-19 16:53:00
11:53 AM,54.0,43.0,66,29.69,10.0,ESE,11.5,-,N/A,,Overcast,120,2012-12-19 17:53:00
12:53 PM,55.9,44.1,64,29.65,10.0,East,8.1,-,N/A,,Overcast,100,2012-12-19 18:53:00
1:53 PM,57.0,46.0,67,29.61,10.0,East,6.9,-,N/A,,Overcast,80,2012-12-19 19:53:00
2:53 PM,62.1,53.1,72,29.58,10.0,SSE,11.5,17.3,N/A,,Overcast,160,2012-12-19 20:53:00
3:53 PM,64.0,55.9,75,29.56,10.0,South,15.0,-,N/A,,Mostly Cloudy,170,2012-12-19 21:53:00
4:53 PM,63.0,55.9,78,29.54,10.0,SSE,12.7,21.9,N/A,,Mostly Cloudy,160,2012-12-19 22:53:00
5:53 PM,63.0,55.9,78,29.53,10.0,South,11.5,19.6,N/A,,Overcast,170,2012-12-19 23:53:00
6:19 PM,62.6,55.4,77,29.53,10.0,SSE,8.1,-,N/A,,Overcast,160,2012-12-20 00:19:00
6:53 PM,63.0,55.9,78,29.51,10.0,South,12.7,24.2,N/A,,Overcast,170,2012-12-20 00:53:00
7:53 PM,62.6,55.4,77,29.50,10.0,South,11.5,25.3,N/A,,Clear,180,2012-12-20 01:53:00
8:53 PM,63.0,55.9,78,29.44,10.0,South,15.0,-,N/A,,Partly Cloudy,170,2012-12-20 02:53:00
9:53 PM,62.1,57.0,84,29.42,10.0,South,10.4,-,N/A,,Mostly Cloudy,170,2012-12-20 03:53:00
10:53 PM,63.0,55.9,78,29.40,10.0,SSW,12.7,21.9,N/A,,Overcast,200,2012-12-20 04:53:00
11:53 PM,62.1,55.0,78,29.38,9.0,SW,15.0,21.9,N/A,,Overcast,230,2012-12-20 05:53:00